Dewpoint
29 28 33 34 35 35 33 31 31 34 35 41 42 43 45 52 51 51 51 53 54 57 58 60 62 63 65 66 68 69 69 71 69 69 68 68 68 70 71 73 75 74 74 74
25 27 33 34 34 32 32 31 31 33 39 41 41 40 42 51 53 52 52 52 53 55 55 57 59 60 63 65 66 68 70 71 70 69 69 69 70 70 71 75 75 74 73 71
22 25 31 33 32 31 30 29 30 31 33 41 41 39 43 47 53 54 53 53 53 54 55 56 56 57 60 63 65 67 70 72 71 72 71 71 72 73 72 73 73 72 71 73
16 19 28 30 31 30 29 28 29 29 28 22 38 26 39 42 49 52 53 54 53 54 55 55 55 57 59 61 65 67 69 71 71 72 71 73 69 68 70 72 73 72 73 73
17 17 23 27 29 29 29 28 26 27 27 29 34 30 30 41 36 39 50 52 54 54 54 55 55 57 59 61 63 66 69 70 72 72 73 71 71 69 70 72 73 74 75 75
16 14 18 21 22 28 23 18 18 24 28 22 28 31 22 30 35 39 48 53 53 54 55 55 56 57 60 61 63 65 69 71 72 72 72 74 73 71 71 72 72 73 73 74
12 10 10 12 9 16 18 12 12 16 15 15 22 31 26 28 29 37 46 47 54 55 55 56 56 57 60 62 62 64 69 71 71 71 71 72 73 73 73 73 72 75 71 70
11 10 10 10 12 10 10 5 12 17 9 6 19 20 16 32 43 48 50 50 54 56 56 56 57 58 60 61 63 65 68 70 70 71 71 73 73 70 71 73 75 76 75 70
13 10 7 7 8 10 11 10 8 7 13 11 12 21 23 41 45 47 47 51 53 56 58 57 57 57 59 61 64 65 67 69 70 70 72 72 72 72 71 74 74 73 73 71
14 11 7 6 7 9 10 10 6 14 14 11 12 22 22 38 39 43 47 48 50 52 54 56 58 58 58 60 62 64 66 68 68 69 70 70 71 73 73 74 73 73 71 71
7 9 12 11 10 9 9 8 10 11 14 11 11 15 27 36 40 41 44 49 50 50 52 55 57 59 59 61 62 63 65 67 67 68 70 71 71 72 73 72 73 71 72 71
11 6 14 10 13 14 6 10 9 10 17 17 16 11 37 43 42 43 44 46 47 50 51 55 54 58 60 62 63 65 65 66 67 69 71 72 72 72 72 72 73 72 71 72
12 12 14 14 19 21 16 10 5 7 13 25 12 13 29 47 45 45 48 51 50 52 52 54 56 59 62 62 67 67 67 67 67 70 70 69 71 72 72 72 72 72 72 72
31 14 17 17 26 28 28 12 11 6 13 17 15 22 35 49 50 54 59 57 55 55 54 54 56 58 61 64 67 69 70 70 71 71 71 71 71 71 72 73 72 72 71 70
20 25 28 29 30 29 31 23 11 16 22 20 32 34 46 53 56 59 60 60 62 64 61 57 56 59 61 63 67 69 71 73 73 73 73 72 73 73 73 73 72 71 70 69
26 30 34 32 32 38 40 40 25 34 29 43 42 42 53 57 59 56 56 58 61 61 66 67 68 67 64 61 65 69 71 73 72 74 73 74 73 73 73 72 71 71 70 69
34 33 34 31 32 31 30 37 40 45 46 44 36 46 54 56 57 54 56 55 54 55 58 63 67 69 68 62 68 70 71 72 70 70 69 71 73 71 71 71 70 70 68 69
37 37 36 31 33 27 30 46 45 44 48 48 50 52 53 53 53 53 53 55 56 57 57 57 61 66 69 67 67 72 72 73 73 72 72 72 72 71 72 70 69 69 68 67
33 37 34 32 30 33 39 45 46 44 43 51 50 49 46 47 53 53 53 54 56 58 59 57 55 62 71 71 72 73 73 73 73 73 73 74 72 71 70 69 69 68 67 68
34 36 32 34 30 29 34 42 46 43 34 51 52 49 46 47 45 49 52 52 55 57 60 60 59 59 67 71 72 72 72 73 73 74 74 73 72 72 71 69 68 67 68 67
40 39 34 34 30 30 36 45 45 39 36 50 53 50 48 47 47 50 53 54 55 58 60 63 65 61 68 73 73 72 72 72 73 73 74 73 73 71 70 69 68 68 68 65
39 39 37 37 35 32 44 45 42 48 53 55 55 54 50 51 51 52 53 55 57 58 61 66 68 68 68 74 74 73 73 74 75 74 73 69 67 67 66 65 66 65 64 63
41 43 42 41 41 48 48 48 49 49 51 54 55 52 52 49 50 52 54 55 56 57 65 69 70 70 71 73 74 73 75 75 73 72 68 66 66 66 64 63 62 62 62 63
42 45 44 47 47 49 48 51 50 52 50 52 51 51 51 50 50 51 52 53 55 58 65 67 69 70 70 72 73 74 74 74 72 70 67 66 67 66 65 64 63 61 60 61
40 44 44 45 47 50 50 52 52 50 52 52 54 53 50 50 50 53 53 56 57 61 66 67 68 70 70 71 72 73 74 72 71 70 67 66 67 66 65 64 63 62 61 61
40 44 40 39 46 51 51 51 52 52 51 51 52 53 51 52 52 53 55 59 61 63 67 67 68 69 69 70 71 71 73 71 69 67 66 66 65 66 65 60 59 53 56 55
Lifted_Index
6 5 3 2 1 -0 -1 -0 0 1 1 1 0 0 -0 -1 -2 -2 -2 -2 -2 -2 -2 -2 -2 -2 -2 -2 -2 -2 -2 -3 -3 -3 -3 -3 -4 -5 -6 -6 -6 -6 -5 -4
5 5 4 2 1 -0 -1 -0 0 1 1 1 0 0 0 -0 -1 -2 -2 -2 -2 -2 -2 -2 -1 -1 -1 -2 -2 -2 -3 -3 -3 -3 -3 -4 -4 -5 -6 -6 -6 -5 -4 -4
5 5 4 3 2 0 -1 -1 -0 1 1 1 0 0 0 0 -1 -2 -2 -2 -2 -2 -2 -1 -1 -1 -1 -1 -2 -2 -3 -3 -4 -4 -4 -4 -5 -6 -6 -6 -6 -5 -4 -4
5 5 5 4 3 1 -0 -0 0 1 2 1 1 0 0 0 -0 -1 -2 -2 -2 -2 -2 -2 -1 -1 -1 -1 -1 -2 -3 -3 -3 -4 -4 -5 -5 -5 -6 -6 -5 -5 -4 -5
5 6 5 4 4 3 2 1 1 1 2 1 1 0 0 0 0 -0 -1 -2 -2 -2 -2 -2 -2 -2 -1 -1 -1 -2 -3 -3 -3 -4 -4 -5 -5 -5 -5 -5 -5 -5 -5 -5
6 6 6 5 5 4 3 2 2 1 1 1 1 1 0 0 1 0 -0 -1 -2 -2 -2 -2 -2 -2 -2 -1 -1 -2 -3 -3 -4 -4 -4 -5 -5 -5 -5 -5 -5 -5 -5 -5
5 5 5 5 5 4 4 3 2 1 1 1 1 1 1 1 1 0 0 -0 -1 -2 -2 -2 -2 -3 -3 -2 -2 -2 -3 -4 -4 -4 -5 -5 -5 -5 -5 -5 -6 -6 -5 -5
3 3 4 4 4 4 3 2 1 0 0 1 1 1 1 1 0 0 -0 -0 -1 -2 -2 -2 -3 -3 -3 -3 -2 -2 -3 -4 -4 -4 -5 -5 -5 -5 -5 -6 -6 -6 -5 -5
2 2 3 4 3 3 2 1 1 1 1 1 1 1 1 0 0 -0 -1 -1 -1 -2 -2 -2 -3 -3 -3 -3 -3 -3 -3 -4 -4 -4 -5 -5 -5 -5 -6 -6 -6 -5 -5 -4
2 2 2 3 3 2 1 1 1 1 1 1 1 1 0 0 -0 -0 -1 -1 -1 -1 -2 -2 -2 -3 -3 -3 -3 -3 -3 -4 -4 -4 -5 -5 -5 -5 -5 -6 -5 -5 -4 -3
2 2 2 2 1 1 1 1 1 1 1 1 1 0 0 0 0 0 0 -0 -0 -0 -1 -1 -2 -2 -2 -3 -3 -3 -3 -4 -4 -4 -4 -5 -5 -4 -5 -5 -5 -4 -3 -3
2 1 1 1 1 1 0 0 0 1 1 1 1 0 0 0 0 0 0 0 0 0 -0 -1 -1 -1 -2 -2 -3 -3 -4 -4 -4 -4 -4 -5 -4 -4 -4 -4 -4 -4 -3 -3
1 1 0 0 1 1 0 0 0 0 0 1 0 0 -0 -1 -1 -1 -1 -1 -0 -0 -1 -1 -1 -1 -2 -2 -3 -4 -4 -4 -4 -5 -5 -5 -4 -4 -4 -4 -4 -4 -3 -3
1 1 0 0 0 0 0 0 0 0 0 0 0 -0 -1 -2 -2 -3 -3 -3 -3 -3 -2 -1 -1 -1 -2 -2 -4 -5 -5 -6 -6 -6 -6 -5 -5 -5 -4 -4 -4 -3 -3 -2
1 1 0 0 1 0 0 0 0 0 -0 -0 -1 -1 -2 -3 -4 -4 -5 -5 -5 -5 -4 -3 -3 -3 -3 -3 -4 -5 -6 -7 -7 -6 -6 -6 -6 -5 -5 -4 -4 -3 -2 -2
1 1 0 0 0 0 -0 -0 -0 -0 -1 -1 -1 -2 -3 -5 -5 -5 -4 -5 -5 -5 -5 -5 -5 -5 -5 -4 -4 -5 -6 -7 -6 -6 -6 -7 -6 -6 -5 -4 -3 -3 -2 -2
1 1 0 0 0 0 -0 -1 -1 -2 -2 -2 -2 -3 -4 -5 -5 -4 -4 -3 -3 -4 -4 -5 -6 -7 -7 -6 -5 -6 -6 -6 -6 -5 -6 -6 -6 -6 -5 -4 -3 -2 -2 -2
1 1 0 0 0 0 -0 -1 -2 -2 -3 -3 -3 -4 -4 -5 -4 -4 -3 -3 -3 -3 -2 -3 -4 -6 -7 -7 -7 -7 -7 -7 -6 -6 -7 -7 -6 -6 -5 -5 -3 -3 -2 -2
0 0 0 0 0 0 -1 -1 -2 -3 -3 -3 -3 -3 -4 -3 -3 -2 -2 -2 -2 -2 -2 -2 -2 -5 -7 -8 -8 -8 -8 -8 -8 -8 -8 -8 -7 -6 -6 -5 -4 -3 -3 -3
-0 0 0 0 1 0 -0 -1 -2 -2 -2 -3 -3 -3 -2 -2 -1 -0 -0 -0 -0 -1 -2 -2 -3 -4 -6 -8 -8 -8 -8 -8 -8 -8 -8 -8 -7 -6 -6 -5 -4 -4 -4 -4
-0 -0 0 1 1 1 1 -0 -1 -1 -1 -2 -3 -2 -1 0 1 1 1 1 1 -0 -1 -3 -4 -5 -6 -8 -9 -9 -9 -9 -9 -8 -8 -8 -7 -6 -5 -4 -4 -4 -4 -4
0 0 0 1 1 1 1 0 -1 -1 -1 -2 -2 -1 -0 1 1 2 2 1 1 0 -2 -4 -5 -5 -6 -8 -9 -9 -9 -9 -9 -8 -7 -7 -6 -6 -5 -3 -2 -3 -3 -4
1 1 1 1 1 1 1 0 0 -0 -1 -1 -1 -0 0 1 2 2 2 2 2 0 -2 -4 -5 -6 -6 -7 -8 -9 -9 -9 -8 -8 -7 -7 -6 -5 -4 -2 -0 -0 -2 -3
2 2 2 1 1 1 1 1 1 1 0 0 0 0 1 2 2 2 2 2 2 0 -2 -4 -5 -5 -6 -6 -7 -8 -8 -8 -7 -7 -7 -6 -6 -5 -3 -2 -0 1 0 -1
3 2 2 2 1 1 1 1 1 1 1 1 1 1 1 2 2 2 2 2 1 -0 -2 -3 -4 -4 -5 -5 -6 -7 -7 -7 -7 -7 -6 -6 -5 -4 -3 -2 -0 0 1 0
2 2 2 2 2 1 0 1 1 1 1 1 1 1 1 2 2 2 2 1 1 -1 -2 -3 -3 -4 -5 -5 -6 -6 -6 -6 -6 -6 -6 -5 -5 -3 -2 -1 -1 0 0 -0